Hourly Data Report for June 04, 2021

MANIWAKI AIRPORT
QUEBEC
Current Station Operator: ECCC - MSC

46°16'29.000" N
75°59'31.000" W
199.70 m
7034482
71721
WMJ

Download Data

Hourly Data (June 2021)
Hourly Data Report for June 4, 2021
TIME
LST
Temp Definition
°C
Dew Point Definition
°C
Rel Hum Definition
%
Precip. Amount Definition
mm

Wind Dir Definition
10's deg

Wind Spd Definition
km/h
Visibility Definition
km
Stn Press Definition
kPa
Hmdx Definition


Wind Chill Definition


Weather Definition


00:00 14.7 14.0 95 0.9 18 4   98.51     LegendNANA
01:00 14.0 13.7 98 0.0 20 5   98.51     LegendNANA
02:00 13.9 13.7 99 0.0 20 5   98.51     LegendNANA
03:00 14.7 14.3 97 0.0 17 7   98.49     LegendNANA
04:00 14.0 13.6 97 0.0 0 1   98.48     LegendNANA
05:00 12.7 12.3 98 0.0 13 2   98.51     LegendNANA
06:00 15.6 14.6 94 0.0 14 3   98.53     LegendNANA
07:00 17.6 15.3 86 0.0 20 3   98.58     LegendNANA
08:00 19.4 14.3 73 0.0 24 7   98.59     LegendNANA
09:00 21.5 15.1 67 0.0 27 5   98.55 26   LegendNANA
10:00 22.7 13.8 57 0.0 21 11   98.55 26   LegendNANA
11:00 24.0 13.3 51 0.0 20 8   98.52 27   LegendNANA
12:00 24.5 13.4 50 0.0 31 9   98.47 28   LegendNANA
13:00 25.5 12.1 43 0.0 26 11   98.46 28   LegendNANA
14:00 27.1 11.5 38 0.0 24 12   98.40 29   LegendNANA
15:00 28.0 12.6 38 0.0 21 16   98.38 31   LegendNANA
16:00 26.3 12.3 42 0.0 22 8   98.35 29   LegendNANA
17:00 24.6 13.1 49 0.0 22 21   98.36 27   LegendNANA
18:00 24.2 13.7 52 0.0 21 8   98.34 27   LegendNANA
19:00 22.4 15.0 63 0.0 20 5   98.35 26   LegendNANA
20:00 18.8 15.3 80 0.0 19 4   98.35     LegendNANA
21:00 17.5 15.4 88 0.0 20 6   98.37     LegendNANA
22:00 17.7 14.8 83 0.0 20 7   98.36     LegendNANA
23:00 16.6 14.1 85 0.0 19 8   98.32     LegendNANA

Notes on Data Quality.

Legend

  • E = Estimated
  • M = Missing
  • NA = Not Available*
  • [empty] = Indicates an unobserved value
Date modified: